Location: Horowhenua
(40.7500°S, 175.3333°E)
Time: 04:42:31
(UTC+00:00)

NOAA 11 - Pass Details

Date: 28 January 2023
Orbit: 832 x 850 km, 98.5° (Epoch: 01 April)

Event Time Altitude Azimuth Distance (km) Brightness Sun altitude
Rises 16:26:49 0° 358° (N) 3,377 7.0 -9.8°
Reaches altitude 10° 16:29:15 10° 352° (N) 2,449 6.2 -9.4°
Maximum altitude 16:34:27 46° 279° (W) 1,126 4.5 -8.6°
Drops below altitude 10° 16:39:43 10° 206° (SSW) 2,474 6.7 -7.7°
Sets 16:42:12 0° 199° (SSW) 3,415 7.5 -7.3°
